Location: Ottawa
(45.4170°N, 75.7000°W)
Time: 09:06:48
(UTC-05:00)

Daily predictions for brighter satellites

Satellite Brightness Start Highest point End
(mag) Time Altitude Azimuth Time Altitude Azimuth Time Altitude Azimuth
CENTAUR R/B 2.7 16:46:03 10° SSW 16:52:02 67° ESE 16:58:53 10° NE
Cosmos 1707 Rocket 3.8 16:49:43 10° SSW 16:54:10 80° W 16:58:39 10° N
SJ-12 3.9 16:50:18 10° SSE 16:54:25 71° ENE 16:58:34 10° N
Cosmos 1437 3.8 16:53:33 10° SSE 16:56:16 26° E 16:58:59 10° NE
Cosmos 1862 3.5 16:53:13 10° N 16:57:15 82° W 17:01:17 10° S
BREEZE-M R/B 2.1 16:57:31 10° WNW 16:59:56 56° NNE 17:03:17 10° E
Cosmos 2173 Rocket 4.3 16:56:06 10° SSW 17:02:10 71° W 17:08:20 10° N
Cosmos 2082 Rocket 3.3 16:58:18 10° N 17:02:54 24° NE 17:07:26 10° ESE
Cosmos 332 Rocket 4.5 16:58:52 10° NNW 17:03:40 61° WSW 17:08:28 10° S
ERBS 2.2 17:03:09 10° NW 17:06:34 85° NE 17:09:58 10° SE
CSL-04 Rocket 3.6 17:02:18 10° SSE 17:07:34 72° ENE 17:12:54 10° N
Cosmos 468 Rocket 3.9 17:02:30 10° NNW 17:07:44 82° ENE 17:12:52 10° SSE
Cosmos 1782 4.5 17:07:58 10° ESE 17:10:20 15° E 17:12:42 10° NE
Meteor 2-10 Rocket 3.7 17:05:33 10° SSW 17:10:46 81° W 17:16:16 10° N
MSX 4.4 17:07:16 10° S 17:13:00 66° WSW 17:18:47 10° NNW
Cosmos 972 Rocket 3.8 17:09:20 10° NNW 17:14:18 84° ENE 17:19:13 10° SSE
GENESIS II 4.2 17:13:25 10° NW 17:17:22 88° NE 17:21:16 10° SE
Cosmos 1340 2.7 17:14:41 10° SSW 17:18:28 84° W 17:22:16 10° N
ALOS 3.4 17:15:03 10° ESE 17:18:31 21° ENE 17:22:01 10° NNE
USA 161 3.6 17:24:00 10° NNW 17:25:19 16° WNW 17:26:42 10° WSW
SMAP 3.0 17:22:54 10° SSE 17:27:33 85° ENE 17:32:13 10° NNW
Cosmos 1763 Rocket 3.4 17:22:38 10° NNW 17:27:53 73° ENE 17:33:01 10° SSE
Cosmos 1908 Rocket 3.8 17:24:42 10° N 17:28:54 46° ENE 17:33:03 10° SSE
Cosmos 2233 Rocket 4.0 17:23:16 10° S 17:29:26 63° E 17:35:34 10° NNE
Cosmos 1733 Rocket 3.4 17:26:50 10° NNW 17:31:15 72° W 17:35:40 10° S
ERS-2 2.6 17:28:28 10° SE 17:31:54 38° ENE 17:35:20 10° N
Cosmos 972 4.3 17:28:03 10° NNW 17:33:07 64° ENE 17:37:57 10° SSE
Cosmos 1844 Rocket 3.2 17:29:42 10° SW 17:35:16 59° WNW 17:40:50 10° NNE
AQUARIUS 4.3 17:31:25 10° SSE 17:35:55 82° WSW 17:40:26 10° NNW
Cosmos 2242 Rocket 4.1 17:32:30 10° SSW 17:37:01 66° W 17:41:34 10° N
COSMOS 2406 4.5 17:31:49 10° NW 17:37:17 46° WSW 17:42:41 10° S
ATLAS 3B R/B 4.4 17:32:52 10° WNW 17:38:22 23° NNW 17:43:43 10° NNE
Cosmos 1814 Rocket 4.2 17:34:17 10° NNW 17:39:40 82° WSW 17:45:01 10° SSE
Sich 1 Rocket 3.7 17:36:34 10° N 17:40:54 51° ENE 17:45:15 10° SSE
Meteor 1-14 Rocket 4.2 17:36:49 10° N 17:42:33 82° E 17:48:07 10° SSE
Cosmos 1862 Rocket 3.8 17:39:34 10° SSW 17:43:59 72° W 17:48:28 10° N
CZ-4C R/B 3.5 17:39:23 10° NNW 17:45:34 35° NE 17:50:24 18° E
SL-27 R/B 2.4 17:43:43 10° N 17:47:00 52° ENE 17:50:16 10° SE
IRS-1A Rocket 4.4 17:45:25 10° SSE 17:51:14 88° WSW 17:57:00 10° NNW
Ariane Rocket 4.0 17:50:26 10° S 17:55:21 49° W 18:00:18 10° NNW
FENGYUN 3A 3.9 17:50:34 10° SE 17:55:43 47° ENE 18:00:54 10° N
USA 234 3.7 17:52:30 20° ENE 17:56:45 45° SE 18:02:57 10° SSW
Cosmos 540 Rocket 3.5 17:52:19 10° NNW 17:57:24 53° ENE 18:02:27 10° SE
COSMOS 2455 3.1 17:54:15 10° SW 18:00:14 68° NW 18:06:00 11° NNE
Meteor 1-11 Rocket 4.3 17:55:52 10° N 18:01:14 35° ENE 18:06:28 10° SE
Cosmos 1833 Rocket 2.7 17:56:00 10° NNW 18:01:34 59° ENE 18:07:07 10° SE
Cosmos 841 Rocket 3.7 17:57:11 10° NNW 18:02:29 77° WSW 18:07:43 10° SSE
Okean 1-7 3.2 17:58:52 10° SSE 18:03:04 48° E 18:06:16 17° NNE
Cosmos 1633 2.4 17:59:58 10° N 18:03:38 69° E 18:07:16 10° SSE
Cosmos 2297 4.1 17:58:38 10° S 18:03:54 40° ESE 18:06:35 25° NE
MTI 3.6 18:02:52 21° NNE 18:04:52 83° E 18:08:05 10° SSW
CZ-4 R/B 2.6 18:04:46 10° S 18:08:28 42° W 18:12:08 10° NNW
Lacrosse 5 3.4 18:05:10 10° WNW 18:09:20 25° NNW 18:11:48 18° NNE
Cosmos 2278 Rocket 2.3 18:03:59 10° SSW 18:09:39 82° WNW 18:14:52 13° NNE
Cosmos 1486 Rocket 4.0 18:05:48 10° SSW 18:11:01 87° WNW 18:15:53 12° NNE
Cosmos 44 Rocket 3.6 18:07:04 10° NNW 18:11:44 45° NE 18:13:11 35° E
Cosmos 1782 Rocket 3.4 18:08:59 10° N 18:13:21 80° E 18:17:42 10° S
MOS 1 4.3 18:10:13 10° SSE 18:15:56 84° WSW 18:21:41 10° NNW
COSMO-SKYMED 1 2.5 18:13:48 11° NNE 18:18:01 86° ESE 18:22:21 10° SSW
YAOGAN 1 3.6 18:16:50 10° S 18:21:01 48° W 18:25:14 10° NNW
Cosmos 1072 Rocket 4.4 18:17:31 10° S 18:23:43 78° E 18:30:04 10° N
Cosmos 292 Rocket 3.7 18:20:25 10° NNW 18:25:08 57° ENE 18:26:25 42° ESE
SPOT 3 Rocket 3.6 18:20:18 10° SSE 18:25:32 84° WSW 18:30:48 10° NNW
Nadezhda 4 Rocket 4.1 18:20:17 10° N 18:26:13 48° ENE 18:32:04 10° SSE
Timation 2 Rocket 4.4 18:20:48 10° NNW 18:27:20 46° NE 18:29:15 37° E
Cosmos 1354 Rocket 3.9 18:22:11 10° S 18:27:26 69° ESE 18:29:48 33° NE
BREEZE-M DEB (TANK) 3.2 18:26:22 10° SW 18:27:47 36° SSW 18:27:47 36° SSW
Cosmos 1606 3.0 18:26:00 10° SSW 18:29:45 64° W 18:32:01 23° N
Cosmos 2034 Rocket 4.0 18:24:02 10° S 18:30:17 61° E 18:36:31 10° NNE
EO 1 Del DPAF 3.6 18:30:33 24° N 18:32:43 64° WNW 18:36:29 10° SSW
Cosmos 2221 Rocket 3.5 18:29:25 10° S 18:33:49 87° W 18:36:17 26° N
NOAA 12 4.3 18:35:20 10° S 18:40:39 72° WSW 18:45:59 10° NNW
Meteor 2-6 Rocket 4.1 18:36:31 10° S 18:41:58 86° W 18:47:35 10° N
Cosmos 1092 Rocket 4.4 18:36:19 10° N 18:41:03 41° NE 18:41:03 41° NE
CENTAUR R/B 3.9 18:37:29 10° W 18:43:15 35° NNW 18:48:01 17° NNE
Cosmos 44 3.1 18:39:57 10° NW 18:44:38 87° NE 18:45:15 68° SE
Cosmos 1782 3.9 18:42:26 10° SSW 18:46:18 44° WNW 18:49:00 18° N
Cosmos 2082 Rocket 2.5 18:41:50 10° NNW 18:47:29 66° WSW 18:53:04 10° SSE
Meteor 2-20 4.3 18:44:50 10° N 18:50:58 89° E 18:57:02 10° S
BREEZE-M DEB (TANK) 4.4 18:48:51 10° WNW 18:50:25 32° NW 18:50:25 32° NW
Okean 2 Rocket 3.5 18:47:54 10° NNW 18:52:23 62° W 18:56:50 10° S
ALOS 3.2 18:51:08 10° S 18:55:38 48° W 19:00:11 10° NNW
Thor Agena Rocket 4.4 18:59:06 36° S 18:59:06 36° S 19:02:11 10° S
Cosmos 1464 Rocket 4.3 18:53:09 10° SSW 18:59:13 63° WNW 19:05:20 10° N
FengYun 1-2 T 4.1 18:55:41 20° SSE 18:59:39 89° E 19:05:15 10° NNW
Cosmos 405 Rocket 4.4 18:57:07 10° SSW 18:58:57 26° SSW 18:58:57 26° SSW
Meteor 1-27 Rocket 3.8 19:02:52 10° SSW 19:08:47 82° W 19:11:10 39° N
CZ-4C R/B 2.9 19:27:41 10° NW 19:34:49 77° SW 19:35:39 70° S
USA 234 3.4 19:39:52 65° NNW 19:39:57 65° NNW 19:46:24 10° WSW
Lacrosse 5 4.3 19:49:39 10° NW 19:51:00 16° NNW 19:51:00 16° NNW
